Location: Unspecified
(41.9000°N, 12.4830°E)
Time: 17:58:37
(UTC+02:00)

ISS - Pass Details

Date: 18 September 2017
Orbit: 401 x 407 km, 51.6° (Epoch: 25 September)

Event Time Altitude Azimuth Distance (km) Brightness Sun altitude
Exits shadow 05:55:10 - 305° (NW) 1,512 -1.3 -11.5°
Reaches altitude 10° 05:55:15 10° 305° (NW) 1,471 -1.4 -11.5°
Maximum altitude 05:58:34 87° 33° (NNE) 412 -3.8 -10.9°
Drops below altitude 10° 06:01:51 10° 125° (SE) 1,463 -0.3 -10.3°
Sets 06:03:55 0° 125° (SE) 2,319 0.7 -9.9°
